| time (UTC) | temp F | wind direction | speed MPH | gust MPH | rain 1hr in | rain 24hr in | rain mn in | humidity % | barometer mb |
| 20260903192704 | 59 | 275 | 8.0 | 12.0 | 0.00 | 0.00 | 0.00 | 84 | 1009.3 |
| 20260903192205 | 59 | 290 | 8.0 | 14.0 | 0.00 | 0.00 | 0.00 | 84 | 1009.2 |
| 20260903191704 | 60 | 297 | 9.0 | 12.0 | 0.00 | 0.00 | 0.00 | 83 | 1009.2 |
| 20260903191204 | 60 | 309 | 9.0 | 12.0 | 0.00 | 0.00 | 0.00 | 82 | 1009.2 |
| 20260903190206 | 62 | 314 | 6.0 | 12.0 | 0.00 | 0.00 | 0.00 | 81 | 1009.0 |
| 20260903185705 | 61 | 316 | 5.0 | 12.0 | 0.00 | 0.00 | 0.00 | 81 | 1009.0 |
| 20260903185204 | 62 | 288 | 8.0 | 12.0 | 0.00 | 0.00 | 0.00 | 80 | 1009.0 |
| 20260903184706 | 62 | 309 | 6.0 | 13.0 | 0.00 | 0.00 | 0.00 | 81 | 1009.0 |
| 20260903184205 | 62 | 314 | 7.0 | 12.0 | 0.00 | 0.00 | 0.00 | 81 | 1008.9 |
| 20260903183703 | 61 | 306 | 7.0 | 12.0 | 0.00 | 0.00 | 0.00 | 81 | 1009.0 |
| 20260903183204 | 61 | 304 | 7.0 | 12.0 | 0.00 | 0.00 | 0.00 | 82 | 1008.7 |
| 20260903182205 | 61 | 271 | 6.0 | 10.0 | 0.00 | 0.00 | 0.00 | 82 | 1008.7 |
| 20260903181705 | 61 | 322 | 5.0 | 9.0 | 0.00 | 0.00 | 0.00 | 82 | 1008.7 |
| 20260903181203 | 61 | 294 | 6.0 | 10.0 | 0.00 | 0.00 | 0.00 | 82 | 1008.8 |
| 20260903180704 | 61 | 308 | 7.0 | 10.0 | 0.00 | 0.00 | 0.00 | 82 | 1008.7 |
| 20260903180204 | 61 | 292 | 7.0 | 10.0 | 0.00 | 0.00 | 0.00 | 82 | 1008.7 |
| 20260903175703 | 61 | 318 | 5.0 | 9.0 | 0.00 | 0.00 | 0.00 | 82 | 1008.6 |
| 20260903175204 | 61 | 311 | 5.0 | 12.0 | 0.00 | 0.00 | 0.00 | 82 | 1008.4 |
| 20260903174704 | 62 | 297 | 5.0 | 12.0 | 0.00 | 0.00 | 0.00 | 82 | 1008.4 |
| 20260903174205 | 62 | 336 | 4.0 | 10.0 | 0.00 | 0.00 | 0.00 | 82 | 1008.3 |
| 20260903173204 | 62 | 325 | 4.0 | 8.0 | 0.00 | 0.00 | 0.00 | 82 | 1008.3 |
| 20260903172705 | 62 | 325 | 5.0 | 9.0 | 0.00 | 0.00 | 0.00 | 81 | 1008.2 |
| 20260903172205 | 63 | 5 | 7.0 | 10.0 | 0.00 | 0.00 | 0.00 | 80 | 1008.1 |
| 20260903171706 | 63 | 17 | 7.0 | 9.0 | 0.00 | 0.00 | 0.00 | 80 | 1008.1 |
| 20260903170704 | 63 | 175 | 1.0 | 3.0 | 0.00 | 0.00 | 0.00 | 79 | 1007.9 |
| 20260903170204 | 62 | 317 | 2.0 | 3.0 | 0.00 | 0.00 | 0.00 | 79 | 1007.8 |
| 20260903165705 | 62 | 22 | 2.0 | 3.0 | 0.00 | 0.00 | 0.00 | 79 | 1007.9 |
| 20260903165204 | 62 | 16 | 2.0 | 3.0 | 0.00 | 0.00 | 0.00 | 81 | 1007.9 |
| 20260903164204 | 61 | 233 | 0.0 | 3.0 | 0.00 | 0.00 | 0.00 | 83 | 1007.8 |
| 20260903163705 | 61 | 251 | 2.0 | 6.0 | 0.00 | 0.00 | 0.00 | 84 | 1007.8 |
| 20260903162704 | 59 | 308 | 2.0 | 3.0 | 0.00 | 0.00 | 0.00 | 85 | 1007.8 |
| 20260903162204 | 59 | 232 | 2.0 | 3.0 | 0.00 | 0.00 | 0.00 | 86 | 1007.7 |
| 20260903161705 | 59 | 236 | 1.0 | 3.0 | 0.00 | 0.00 | 0.00 | 87 | 1007.7 |
| 20260903161204 | 59 | 218 | 2.0 | 3.0 | 0.00 | 0.00 | 0.00 | 87 | 1007.8 |
| 20260903160703 | 59 | 240 | 2.0 | 3.0 | 0.00 | 0.00 | 0.00 | 88 | 1007.7 |
| 20260903160205 | 59 | 235 | 2.0 | 3.0 | 0.00 | 0.00 | 0.00 | 90 | 1007.8 |
| 20260903155704 | 58 | 241 | 2.0 | 3.0 | 0.00 | 0.00 | 0.00 | 91 | 1007.8 |
| 20260903154704 | 57 | 269 | 1.0 | 3.0 | 0.00 | 0.00 | 0.00 | 95 | 1007.7 |
| 20260903154204 | 56 | 271 | 1.0 | 3.0 | 0.00 | 0.00 | 0.00 | 95 | 1007.7 |
| 20260903153704 | 56 | 308 | 1.0 | 2.0 | 0.00 | 0.00 | 0.00 | 95 | 1007.8 |
| 20260903153204 | 55 | 74 | 0.0 | 1.0 | 0.00 | 0.00 | 0.00 | 95 | 1007.8 |
| 20260903152204 | 55 | 74 | 0.0 | 0.0 | 0.00 | 0.00 | 0.00 | 96 | 1007.8 |
| 20260903151705 | 54 | 74 | 0.0 | 0.0 | 0.00 | 0.00 | 0.00 | 95 | 1007.8 |
| 20260903150704 | 54 | 74 | 0.0 | 0.0 | 0.00 | 0.00 | 0.00 | 95 | 1007.8 |
| 20260903145703 | 54 | 74 | 0.0 | 0.0 | 0.00 | 0.00 | 0.00 | 95 | 1007.8 |
| 20260903145204 | 53 | 74 | 0.0 | 0.0 | 0.00 | 0.00 | 0.00 | 95 | 1007.8 |
| 20260903144704 | 53 | 74 | 0.0 | 0.0 | 0.00 | 0.00 | 0.00 | 95 | 1007.8 |
| 20260903144203 | 53 | 74 | 0.0 | 0.0 | 0.00 | 0.00 | 0.00 | 95 | 1007.8 |
| 20260903143704 | 53 | 74 | 0.0 | 0.0 | 0.00 | 0.00 | 0.00 | 95 | 1007.7 |
| 20260903143204 | 53 | 74 | 0.0 | 0.0 | 0.00 | 0.00 | 0.00 | 95 | 1007.7 |
| 20260903142704 | 53 | 74 | 0.0 | 0.0 | 0.00 | 0.00 | 0.00 | 95 | 1007.7 |
| 20260903142204 | 52 | 74 | 0.0 | 1.0 | 0.00 | 0.00 | 0.00 | 95 | 1007.6 |
| 20260903141705 | 52 | 74 | 2.0 | 3.0 | 0.00 | 0.00 | 0.00 | 95 | 1007.6 |
| 20260903140703 | 52 | 202 | 0.0 | 0.0 | 0.00 | 0.00 | 0.00 | 94 | 1007.6 |
| 20260903140204 | 52 | 202 | 0.0 | 0.0 | 0.00 | 0.00 | 0.00 | 94 | 1007.6 |
| 20260903135703 | 52 | 202 | 0.0 | 1.0 | 0.00 | 0.00 | 0.00 | 94 | 1007.5 |
| 20260903135204 | 52 | 202 | 0.0 | 1.0 | 0.00 | 0.00 | 0.00 | 94 | 1007.5 |
| 20260903134705 | 52 | 202 | 0.0 | 0.0 | 0.00 | 0.00 | 0.00 | 94 | 1007.4 |
| 20260903134203 | 52 | 202 | 0.0 | 0.0 | 0.00 | 0.00 | 0.00 | 94 | 1007.3 |
| 20260903133704 | 52 | 202 | 0.0 | 0.0 | 0.00 | 0.00 | 0.00 | 94 | 1007.3 |
| 20260903133205 | 52 | 202 | 0.0 | 0.0 | 0.00 | 0.00 | 0.00 | 93 | 1007.3 |
| 20260903132204 | 52 | 202 | 0.0 | 0.0 | 0.00 | 0.00 | 0.00 | 93 | 1007.4 |
| 20260903131704 | 52 | 202 | 0.0 | 0.0 | 0.00 | 0.00 | 0.00 | 93 | 1007.3 |
| 20260903131204 | 52 | 202 | 0.0 | 0.0 | 0.00 | 0.00 | 0.00 | 93 | 1007.2 |
| 20260903130704 | 52 | 202 | 0.0 | 0.0 | 0.00 | 0.00 | 0.00 | 93 | 1007.2 |
| 20260903130204 | 52 | 202 | 0.0 | 0.0 | 0.00 | 0.00 | 0.00 | 93 | 1007.1 |
| 20260903125703 | 52 | 202 | 0.0 | 0.0 | 0.00 | 0.00 | 0.00 | 93 | 1007.1 |
| 20260903124704 | 52 | 202 | 0.0 | 0.0 | 0.00 | 0.00 | 0.00 | 93 | 1007.1 |
| 20260903124204 | 52 | 202 | 0.0 | 0.0 | 0.00 | 0.00 | 0.00 | 93 | 1007.1 |
| 20260903123704 | 52 | 202 | 0.0 | 0.0 | 0.00 | 0.00 | 0.00 | 93 | 1007.0 |
| 20260903123204 | 52 | 202 | 0.0 | 0.0 | 0.00 | 0.00 | 0.00 | 93 | 1007.0 |
| 20260903122704 | 52 | 202 | 0.0 | 0.0 | 0.00 | 0.00 | 0.00 | 93 | 1006.9 |
| 20260903122204 | 52 | 202 | 0.0 | 0.0 | 0.00 | 0.00 | 0.00 | 93 | 1007.0 |
| 20260903121205 | 52 | 202 | 0.0 | 1.0 | 0.00 | 0.00 | 0.00 | 93 | 1006.9 |
| 20260903120204 | 52 | 202 | 0.0 | 0.0 | 0.00 | 0.00 | 0.00 | 93 | 1006.7 |
| 20260903115704 | 52 | 202 | 0.0 | 0.0 | 0.00 | 0.00 | 0.00 | 93 | 1006.7 |
| 20260903114204 | 52 | 202 | 0.0 | 1.0 | 0.00 | 0.00 | 0.00 | 93 | 1006.6 |
| 20260903113206 | 51 | 221 | 0.0 | 2.0 | 0.00 | 0.00 | 0.00 | 93 | 1006.4 |
| 20260903112704 | 51 | 213 | 2.0 | 2.0 | 0.00 | 0.00 | 0.00 | 93 | 1006.4 |
| 20260903111704 | 51 | 193 | 1.0 | 1.0 | 0.00 | 0.00 | 0.00 | 93 | 1006.3 |
| 20260903111203 | 51 | 193 | 1.0 | 3.0 | 0.00 | 0.00 | 0.00 | 93 | 1006.3 |
| 20260903110206 | 51 | 275 | 1.0 | 2.0 | 0.00 | 0.00 | 0.00 | 94 | 1005.9 |
| 20260903105704 | 50 | 275 | 0.0 | 2.0 | 0.00 | 0.00 | 0.00 | 94 | 1005.9 |
| 20260903104704 | 50 | 255 | 1.0 | 2.0 | 0.00 | 0.00 | 0.00 | 94 | 1005.9 |
| 20260903104205 | 50 | 255 | 1.0 | 3.0 | 0.00 | 0.00 | 0.00 | 94 | 1005.8 |
| 20260903103705 | 49 | 260 | 2.0 | 3.0 | 0.00 | 0.00 | 0.00 | 94 | 1005.7 |
| 20260903103205 | 49 | 283 | 1.0 | 2.0 | 0.00 | 0.00 | 0.00 | 94 | 1005.8 |
| 20260903102704 | 49 | 216 | 0.0 | 1.0 | 0.00 | 0.00 | 0.00 | 94 | 1005.9 |
| 20260903101704 | 48 | 176 | 0.0 | 0.0 | 0.00 | 0.00 | 0.00 | 94 | 1005.8 |
| 20260903101203 | 48 | 176 | 0.0 | 0.0 | 0.00 | 0.00 | 0.00 | 94 | 1005.7 |
| 20260903100705 | 48 | 176 | 0.0 | 0.0 | 0.00 | 0.00 | 0.00 | 94 | 1005.8 |
| 20260903100206 | 48 | 176 | 0.0 | 0.0 | 0.00 | 0.00 | 0.00 | 93 | 1005.8 |
| 20260903095704 | 48 | 176 | 0.0 | 1.0 | 0.00 | 0.00 | 0.00 | 93 | 1005.8 |
| 20260903095204 | 48 | 171 | 1.0 | 2.0 | 0.00 | 0.00 | 0.00 | 93 | 1005.7 |
| 20260903094204 | 49 | 117 | 0.0 | 0.0 | 0.00 | 0.00 | 0.00 | 94 | 1005.7 |
| 20260903093704 | 49 | 117 | 0.0 | 1.0 | 0.00 | 0.00 | 0.00 | 93 | 1005.7 |
| 20260903093205 | 49 | 20 | 0.0 | 0.0 | 0.00 | 0.00 | 0.00 | 93 | 1005.7 |
| 20260903092704 | 49 | 20 | 0.0 | 0.0 | 0.00 | 0.00 | 0.00 | 93 | 1005.8 |
| 20260903092204 | 49 | 20 | 0.0 | 1.0 | 0.00 | 0.00 | 0.00 | 94 | 1005.7 |
| 20260903091706 | 49 | 33 | 0.0 | 1.0 | 0.00 | 0.00 | 0.00 | 93 | 1005.8 |
| 20260903091204 | 49 | 48 | 0.0 | 1.0 | 0.00 | 0.00 | 0.00 | 93 | 1005.8 |
| 20260903090704 | 49 | 101 | 0.0 | 1.0 | 0.00 | 0.00 | 0.00 | 93 | 1005.8 |
| 20260903085704 | 50 | 101 | 0.0 | 0.0 | 0.00 | 0.00 | 0.00 | 94 | 1005.5 |
| 20260903085203 | 50 | 101 | 0.0 | 1.0 | 0.00 | 0.00 | 0.00 | 94 | 1005.6 |
| 20260903084704 | 50 | 101 | 0.0 | 1.0 | 0.00 | 0.00 | 0.00 | 94 | 1005.7 |
| 20260903084204 | 50 | 101 | 0.0 | 1.0 | 0.00 | 0.00 | 0.00 | 95 | 1005.7 |
| 20260903083703 | 50 | 101 | 1.0 | 3.0 | 0.00 | 0.00 | 0.00 | 95 | 1005.7 |
| 20260903083205 | 50 | 284 | 0.0 | 1.0 | 0.00 | 0.00 | 0.00 | 94 | 1005.7 |
| 20260903082704 | 50 | 245 | 0.0 | 1.0 | 0.00 | 0.00 | 0.00 | 94 | 1005.8 |
| 20260903082203 | 49 | 245 | 0.0 | 1.0 | 0.00 | 0.00 | 0.00 | 95 | 1005.8 |
| 20260903081704 | 49 | 245 | 0.0 | 1.0 | 0.00 | 0.00 | 0.00 | 94 | 1005.7 |
| 20260903081204 | 49 | 245 | 1.0 | 2.0 | 0.00 | 0.00 | 0.00 | 94 | 1005.7 |
| 20260903080204 | 50 | 291 | 2.0 | 3.0 | 0.00 | 0.00 | 0.00 | 94 | 1005.5 |
| 20260903075704 | 50 | 291 | 1.0 | 2.0 | 0.00 | 0.00 | 0.00 | 94 | 1005.5 |
| 20260903075204 | 50 | 30 | 0.0 | 1.0 | 0.00 | 0.00 | 0.00 | 93 | 1005.5 |
| 20260903074705 | 50 | 30 | 0.0 | 1.0 | 0.00 | 0.00 | 0.00 | 94 | 1005.6 |
| 20260903074204 | 50 | 30 | 0.0 | 0.0 | 0.00 | 0.00 | 0.00 | 94 | 1005.6 |
| 20260903073703 | 50 | 30 | 0.0 | 0.0 | 0.00 | 0.00 | 0.00 | 94 | 1005.6 |
| 20260903073206 | 50 | 30 | 0.0 | 1.0 | 0.00 | 0.00 | 0.00 | 94 | 1005.6 |
| 20260903072703 | 50 | 30 | 1.0 | 1.0 | 0.00 | 0.00 | 0.00 | 94 | 1005.5 |
| 20260903072204 | 50 | 30 | 1.0 | 2.0 | 0.00 | 0.00 | 0.00 | 94 | 1005.6 |
| 20260903071705 | 50 | 110 | 1.0 | 1.0 | 0.00 | 0.00 | 0.00 | 94 | 1005.4 |
| 20260903070704 | 50 | 110 | 0.0 | 1.0 | 0.00 | 0.00 | 0.00 | 94 | 1005.4 |
| 20260903070206 | 50 | 110 | 1.0 | 2.0 | 0.00 | 0.00 | 0.00 | 95 | 1005.3 |
| 20260903065705 | 50 | 244 | 0.0 | 1.0 | 0.00 | 0.00 | 0.00 | 94 | 1005.2 |
| 20260903064704 | 50 | 244 | 0.0 | 1.0 | 0.00 | 0.00 | 0.00 | 95 | 1005.2 |
| 20260903064204 | 50 | 244 | 0.0 | 0.0 | 0.00 | 0.00 | 0.00 | 95 | 1005.3 |
| 20260903062203 | 50 | 244 | 0.0 | 1.0 | 0.00 | 0.00 | 0.00 | 94 | 1005.3 |
| 20260903061704 | 49 | 244 | 1.0 | 2.0 | 0.00 | 0.00 | 0.00 | 95 | 1005.3 |
| 20260903061204 | 49 | 224 | 1.0 | 3.0 | 0.00 | 0.00 | 0.00 | 94 | 1005.2 |
| 20260903060703 | 49 | 191 | 2.0 | 3.0 | 0.00 | 0.00 | 0.00 | 93 | 1005.3 |
| 20260903060204 | 49 | 201 | 1.0 | 3.0 | 0.00 | 0.00 | 0.00 | 94 | 1005.2 |
| 20260903055204 | 49 | 263 | 1.0 | 2.0 | 0.00 | 0.00 | 0.00 | 93 | 1005.2 |
| 20260903054705 | 50 | 199 | 2.0 | 3.0 | 0.00 | 0.00 | 0.00 | 94 | 1005.2 |
| 20260903054203 | 50 | 202 | 2.0 | 3.0 | 0.00 | 0.00 | 0.00 | 93 | 1005.2 |
| 20260903053704 | 50 | 218 | 0.0 | 2.0 | 0.00 | 0.00 | 0.00 | 93 | 1005.3 |
| 20260903053204 | 50 | 218 | 1.0 | 2.0 | 0.00 | 0.00 | 0.00 | 93 | 1005.4 |
| 20260903052703 | 50 | 218 | 0.0 | 0.0 | 0.00 | 0.00 | 0.00 | 93 | 1005.4 |
| 20260903052203 | 50 | 218 | 1.0 | 2.0 | 0.00 | 0.00 | 0.00 | 93 | 1005.4 |
| 20260903051705 | 50 | 218 | 1.0 | 2.0 | 0.00 | 0.00 | 0.00 | 93 | 1005.3 |
| 20260903050205 | 51 | 218 | 0.0 | 0.0 | 0.00 | 0.00 | 0.00 | 92 | 1005.4 |
| 20260903045703 | 51 | 218 | 0.0 | 0.0 | 0.00 | 0.00 | 0.00 | 92 | 1005.3 |
| 20260903045205 | 51 | 218 | 0.0 | 1.0 | 0.00 | 0.00 | 0.00 | 92 | 1005.3 |
| 20260903044706 | 51 | 218 | 0.0 | 2.0 | 0.00 | 0.00 | 0.00 | 91 | 1005.3 |
| 20260903044204 | 51 | 218 | 2.0 | 3.0 | 0.00 | 0.00 | 0.00 | 91 | 1005.2 |
| 20260903043704 | 52 | 216 | 3.0 | 3.0 | 0.00 | 0.00 | 0.00 | 90 | 1005.1 |
| 20260903043205 | 52 | 196 | 0.0 | 3.0 | 0.00 | 0.00 | 0.00 | 90 | 1005.1 |
| 20260903042204 | 53 | 305 | 1.0 | 2.0 | 0.00 | 0.00 | 0.00 | 90 | 1005.1 |
| 20260903041705 | 53 | 305 | 1.0 | 3.0 | 0.00 | 0.00 | 0.00 | 89 | 1005.0 |
| 20260903041204 | 53 | 169 | 0.0 | 2.0 | 0.00 | 0.00 | 0.00 | 87 | 1004.9 |
| 20260903040704 | 54 | 177 | 2.0 | 3.0 | 0.00 | 0.00 | 0.00 | 88 | 1004.8 |
| 20260903040204 | 55 | 352 | 1.0 | 2.0 | 0.00 | 0.00 | 0.00 | 89 | 1004.7 |
| 20260903035204 | 55 | 106 | 1.0 | 3.0 | 0.00 | 0.00 | 0.00 | 89 | 1004.5 |
| 20260903034204 | 56 | 44 | 1.0 | 6.0 | 0.00 | 0.00 | 0.00 | 88 | 1004.4 |
| 20260903033204 | 56 | 97 | 5.0 | 8.0 | 0.00 | 0.00 | 0.00 | 88 | 1004.1 |
| 20260903032705 | 56 | 94 | 2.0 | 8.0 | 0.00 | 0.00 | 0.00 | 88 | 1003.8 |
| 20260903032204 | 56 | 111 | 4.0 | 7.0 | 0.00 | 0.00 | 0.00 | 87 | 1003.6 |
| 20260903031704 | 57 | 117 | 1.0 | 3.0 | 0.00 | 0.00 | 0.00 | 86 | 1003.4 |
| 20260903030704 | 57 | 20 | 1.0 | 3.0 | 0.00 | 0.00 | 0.00 | 86 | 1003.2 |
| 20260903030205 | 58 | 13 | 3.0 | 5.0 | 0.00 | 0.00 | 0.00 | 86 | 1003.1 |
| 20260903025703 | 58 | 358 | 3.0 | 5.0 | 0.00 | 0.00 | 0.00 | 85 | 1003.1 |
| 20260903025204 | 58 | 313 | 2.0 | 3.0 | 0.00 | 0.00 | 0.00 | 85 | 1002.9 |
| 20260903024705 | 58 | 273 | 0.0 | 2.0 | 0.00 | 0.00 | 0.00 | 85 | 1002.9 |
| 20260903024204 | 59 | 40 | 0.0 | 5.0 | 0.00 | 0.00 | 0.00 | 85 | 1002.9 |
| 20260903023704 | 59 | 24 | 4.0 | 8.0 | 0.00 | 0.00 | 0.00 | 84 | 1002.9 |
| 20260903023204 | 59 | 305 | 2.0 | 6.0 | 0.00 | 0.00 | 0.00 | 84 | 1002.8 |
| 20260903022705 | 60 | 1 | 2.0 | 3.0 | 0.00 | 0.00 | 0.00 | 83 | 1002.8 |
| 20260903022203 | 60 | 252 | 0.0 | 3.0 | 0.00 | 0.00 | 0.00 | 83 | 1002.6 |
| 20260903021704 | 60 | 231 | 1.0 | 8.0 | 0.00 | 0.00 | 0.00 | 83 | 1002.4 |
| 20260903021204 | 60 | 305 | 2.0 | 3.0 | 0.00 | 0.00 | 0.00 | 83 | 1002.3 |
| 20260903020704 | 60 | 336 | 2.0 | 7.0 | 0.00 | 0.00 | 0.00 | 83 | 1002.1 |
| 20260903020204 | 60 | 269 | 2.0 | 10.0 | 0.00 | 0.00 | 0.00 | 83 | 1002.0 |
| 20260903015703 | 60 | 338 | 5.0 | 12.0 | 0.00 | 0.00 | 0.00 | 83 | 1002.0 |
| 20260903015204 | 61 | 297 | 7.0 | 14.0 | 0.00 | 0.00 | 0.00 | 81 | 1001.8 |
| 20260903014705 | 62 | 304 | 9.0 | 13.0 | 0.00 | 0.00 | 0.00 | 80 | 1001.7 |
| 20260903014204 | 63 | 285 | 2.0 | 3.0 | 0.00 | 0.00 | 0.00 | 82 | 1001.5 |
| 20260903013705 | 63 | 159 | 2.0 | 6.0 | 0.00 | 0.00 | 0.00 | 81 | 1001.2 |
| 20260903013205 | 63 | 163 | 3.0 | 5.0 | 0.00 | 0.00 | 0.00 | 81 | 1001.2 |
| 20260903012704 | 62 | 149 | 3.0 | 5.0 | 0.00 | 0.00 | 0.00 | 81 | 1001.3 |
| 20260903012204 | 62 | 94 | 3.0 | 12.0 | 0.00 | 0.00 | 0.00 | 81 | 1001.1 |
| 20260903011705 | 62 | 100 | 6.0 | 12.0 | 0.00 | 0.00 | 0.00 | 81 | 1000.8 |
| 20260903010704 | 62 | 125 | 9.0 | 20.0 | 0.00 | 0.00 | 0.00 | 81 | 1000.6 |
| 20260903010204 | 62 | 127 | 9.0 | 18.0 | 0.00 | 0.00 | 0.00 | 81 | 1000.6 |
| 20260903004705 | 62 | 103 | 10.0 | 16.0 | 0.00 | 0.00 | 0.00 | 80 | 1000.6 |
| 20260903004203 | 62 | 128 | 8.0 | 14.0 | 0.00 | 0.00 | 0.00 | 80 | 1000.4 |
| 20260903003704 | 62 | 102 | 8.0 | 17.0 | 0.00 | 0.00 | 0.00 | 80 | 1000.3 |
| 20260903003204 | 62 | 112 | 9.0 | 16.0 | 0.00 | 0.00 | 0.00 | 80 | 1000.2 |
| 20260903002704 | 62 | 117 | 9.0 | 20.0 | 0.00 | 0.00 | 0.00 | 80 | 1000.1 |
| 20260903002204 | 62 | 109 | 11.0 | 20.0 | 0.00 | 0.00 | 0.00 | 80 | 999.9 |
| 20260903001705 | 62 | 103 | 12.0 | 22.0 | 0.00 | 0.00 | 0.00 | 80 | 999.9 |
| 20260903001205 | 62 | 89 | 15.0 | 21.0 | 0.00 | 0.00 | 0.00 | 80 | 999.9 |
| 20260903000205 | 62 | 114 | 12.0 | 22.0 | 0.00 | 0.00 | 0.00 | 79 | 1000.0 |
| 20260902235204 | 62 | 114 | 13.0 | 21.0 | 0.00 | 0.00 | 0.00 | 78 | 1000.1 |
| 20260902234204 | 62 | 111 | 13.0 | 26.0 | 0.00 | 0.00 | 0.00 | 78 | 1000.1 |
| 20260902233704 | 62 | 102 | 13.0 | 22.0 | 0.00 | 0.00 | 0.00 | 78 | 1000.1 |
| 20260902233205 | 62 | 100 | 13.0 | 23.0 | 0.00 | 0.00 | 0.00 | 77 | 1000.1 |
| 20260902232703 | 63 | 113 | 14.0 | 25.0 | 0.00 | 0.00 | 0.00 | 76 | 1000.1 |
| 20260902231203 | 64 | 106 | 12.0 | 22.0 | 0.00 | 0.00 | 0.00 | 71 | 1000.4 |
| 20260902230705 | 65 | 105 | 14.0 | 20.0 | 0.00 | 0.00 | 0.00 | 70 | 1000.5 |
| 20260902230204 | 65 | 116 | 10.0 | 23.0 | 0.00 | 0.00 | 0.00 | 68 | 1000.6 |
| 20260902225704 | 66 | 100 | 13.0 | 24.0 | 0.00 | 0.00 | 0.00 | 66 | 1000.7 |
| 20260902225204 | 66 | 113 | 10.0 | 17.0 | 0.00 | 0.00 | 0.00 | 64 | 1000.7 |
| 20260902224204 | 66 | 104 | 12.0 | 26.0 | 0.00 | 0.00 | 0.00 | 61 | 1000.7 |
| 20260902223705 | 67 | 108 | 13.0 | 20.0 | 0.00 | 0.00 | 0.00 | 59 | 1000.8 |
| 20260902223205 | 67 | 104 | 13.0 | 20.0 | 0.00 | 0.00 | 0.00 | 60 | 1000.5 |
| 20260902222204 | 66 | 126 | 12.0 | 24.0 | 0.00 | 0.00 | 0.00 | 63 | 1000.6 |
| 20260902221705 | 64 | 112 | 3.0 | 13.0 | 0.00 | 0.00 | 0.00 | 75 | 1000.6 |
| 20260902221205 | 64 | 167 | 2.0 | 9.0 | 0.00 | 0.00 | 0.00 | 77 | 1000.6 |
| 20260902220704 | 65 | 273 | 4.0 | 12.0 | 0.00 | 0.00 | 0.00 | 75 | 1000.5 |
| 20260902220204 | 66 | 236 | 6.0 | 12.0 | 0.00 | 0.00 | 0.00 | 70 | 1000.4 |
| 20260902215704 | 66 | 175 | 3.0 | 7.0 | 0.00 | 0.00 | 0.00 | 70 | 1000.5 |
| 20260902214705 | 65 | 305 | 3.0 | 8.0 | 0.00 | 0.00 | 0.00 | 76 | 1000.6 |
| 20260902213704 | 64 | 209 | 2.0 | 6.0 | 0.00 | 0.00 | 0.00 | 76 | 1000.6 |
| 20260902213205 | 64 | 285 | 5.0 | 8.0 | 0.00 | 0.00 | 0.00 | 76 | 1000.5 |
| 20260902212705 | 65 | 293 | 3.0 | 8.0 | 0.00 | 0.00 | 0.00 | 76 | 1000.7 |
| 20260902212205 | 65 | 295 | 3.0 | 7.0 | 0.00 | 0.00 | 0.00 | 75 | 1000.7 |
| 20260902211705 | 66 | 222 | 2.0 | 8.0 | 0.00 | 0.00 | 0.00 | 74 | 1000.7 |
| 20260902211204 | 68 | 209 | 11.0 | 15.0 | 0.00 | 0.00 | 0.00 | 69 | 1000.6 |
| 20260902210703 | 69 | 150 | 7.0 | 20.0 | 0.00 | 0.00 | 0.00 | 64 | 1000.7 |
| 20260902205704 | 68 | 116 | 7.0 | 16.0 | 0.00 | 0.00 | 0.00 | 69 | 1000.9 |
| 20260902204704 | 66 | 165 | 7.0 | 14.0 | 0.00 | 0.00 | 0.00 | 76 | 1000.9 |
| 20260902203703 | 64 | 279 | 7.0 | 12.0 | 0.00 | 0.00 | 0.00 | 80 | 1001.2 |
| 20260902203204 | 64 | 286 | 8.0 | 12.0 | 0.00 | 0.00 | 0.00 | 81 | 1001.3 |
| 20260902202704 | 64 | 305 | 7.0 | 10.0 | 0.00 | 0.00 | 0.00 | 80 | 1001.4 |
| 20260902201705 | 64 | 298 | 6.0 | 8.0 | 0.00 | 0.00 | 0.00 | 81 | 1001.6 |
| 20260902201204 | 63 | 307 | 4.0 | 8.0 | 0.00 | 0.00 | 0.00 | 81 | 1001.7 |
| 20260902200704 | 63 | 312 | 4.0 | 8.0 | 0.00 | 0.00 | 0.00 | 82 | 1001.8 |
| 20260902200206 | 63 | 290 | 4.0 | 7.0 | 0.00 | 0.00 | 0.00 | 81 | 1001.9 |
| 20260902195705 | 63 | 320 | 3.0 | 8.0 | 0.00 | 0.00 | 0.00 | 81 | 1001.9 |
| 20260902195203 | 63 | 305 | 6.0 | 9.0 | 0.00 | 0.00 | 0.00 | 81 | 1001.9 |
| 20260902194705 | 63 | 289 | 5.0 | 8.0 | 0.00 | 0.00 | 0.00 | 82 | 1001.9 |
| 20260902194204 | 63 | 278 | 4.0 | 8.0 | 0.00 | 0.00 | 0.00 | 81 | 1002.1 |
| 20260902193704 | 63 | 278 | 7.0 | 9.0 | 0.00 | 0.00 | 0.00 | 81 | 1002.1 |